Temp
25 25 25 24 23 23 23 23 22 21 20 20 20 20 19 19 19 19 19 18 18 17 17 17 17 16 16 16 16 16 16 16 15 17 17 18 18 19 20 20 21 21 23
26 26 23 23 22 22 22 22 21 21 20 20 20 19 19 19 19 18 18 17 17 17 17 16 15 15 14 14 15 15 15 16 16 15 16 17 17 17 18 20 20 21 21
25 24 22 22 22 22 22 22 21 20 20 20 19 19 19 19 19 18 17 17 17 16 15 14 14 13 13 13 13 14 14 14 15 15 16 16 15 16 17 19 19 20 21
24 23 22 22 22 22 22 21 21 20 20 20 19 19 19 19 18 17 17 16 16 16 16 14 13 13 13 13 13 13 13 13 13 13 14 15 15 16 17 17 17 18 19
23 22 22 22 21 21 21 21 20 20 20 19 19 19 19 19 17 17 16 16 15 14 13 13 13 13 13 13 13 13 13 13 13 13 13 14 14 16 18 18 17 18 19
22 21 21 21 21 21 21 20 20 20 20 19 19 19 19 18 17 17 15 15 15 13 13 13 13 13 13 13 13 13 13 13 13 13 13 14 16 16 18 18 18 17 18
22 22 22 21 21 21 21 20 20 20 19 19 19 19 18 17 17 16 15 15 15 14 13 13 13 13 13 12 12 13 13 13 13 13 13 14 14 17 18 18 18 19 20
21 22 22 21 21 21 21 20 20 19 19 19 19 19 18 17 17 16 16 16 15 13 13 13 13 13 12 11 10 12 12 13 13 13 13 13 14 15 17 18 19 19 19
22 22 22 21 21 21 21 20 20 19 19 19 19 19 18 17 17 16 16 16 15 13 12 13 13 12 12 12 13 13 13 14 15 15 14 14 14 15 16 17 18 17 17
22 22 22 21 21 21 21 20 20 19 19 19 19 18 18 17 17 15 15 16 14 12 13 14 13 12 12 11 13 14 14 15 15 15 16 15 15 15 16 17 18 17 18
22 22 21 21 21 21 20 20 20 19 19 19 19 19 18 17 16 15 16 16 14 12 12 12 13 13 13 11 12 13 14 15 16 15 16 15 15 15 16 17 18 18 20
21 21 20 20 21 21 20 20 20 20 19 20 19 18 17 16 15 15 15 16 14 13 13 12 12 14 13 13 11 12 12 14 15 14 15 15 15 15 17 17 17 18 18
20 20 19 20 20 21 20 20 20 19 19 19 18 17 17 16 16 15 15 15 15 14 14 13 13 14 13 13 12 12 11 11 12 13 13 13 13 14 15 15 15 15 15
19 18 19 20 20 20 21 18 19 19 19 18 17 17 16 16 16 15 14 14 15 15 14 14 13 13 14 12 11 11 12 11 12 12 12 11 12 12 13 13 13 13 14
18 18 19 19 20 20 18 18 18 17 18 18 18 17 16 15 15 14 13 13 14 13 13 13 12 12 12 11 11 11 11 11 11 12 12 13 13 13 13 14 14 13 12
17 18 19 18 18 16 16 16 16 16 17 17 17 17 15 15 15 14 13 13 14 13 13 11 11 10 10 10 10 10 10 10 11 12 12 12 12 13 13 14 14 13 12
19 18 16 16 15 17 16 15 14 14 16 16 16 16 15 15 14 14 14 13 13 13 12 11 10 10 9 9 9 9 9 9 10 10 11 11 12 13 13 13 13 13 13
17 16 16 16 17 16 17 15 14 15 14 15 15 15 15 14 14 14 13 13 13 12 11 10 9 9 8 8 8 8 9 10 10 10 9 10 10 11 11 12 12 12 12
16 16 16 16 16 17 17 15 14 15 15 15 15 14 14 14 14 14 14 13 13 11 11 10 9 9 8 8 8 8 7 8 9 9 9 9 9 10 10 11 11 12 11
16 15 16 16 16 17 15 14 14 14 14 15 14 15 15 14 14 14 13 13 12 11 10 9 8 8 8 8 7 7 7 7 8 8 8 9 9 9 10 10 10 10 10
15 15 15 16 16 16 15 15 15 15 15 15 15 15 16 15 14 14 13 13 12 11 10 9 8 8 7 7 7 7 7 6 6 7 7 8 8 8 9 9 9 9 9
15 15 15 15 15 16 16 16 15 15 16 16 15 15 15 15 14 13 13 12 12 11 10 10 8 7 7 6 6 6 6 6 6 6 7 7 8 8 8 8 8 7 7
15 14 14 14 15 15 14 14 14 15 15 15 15 15 14 14 13 13 13 12 11 10 9 9 8 7 7 7 6 6 6 5 5 5 6 6 7 7 7 7 6 6 6
15 15 15 14 14 13 13 14 14 15 15 15 15 14 13 13 13 12 12 11 10 9 9 8 7 7 6 6 6 6 6 6 6 5 6 6 6 6 6 6 5 5 5
14 14 15 15 14 14 14 15 16 15 15 15 14 13 12 12 12 12 11 10 10 9 8 8 7 7 6 6 6 6 5 5 5 5 5 5 5 5 5 5 5 5 4
15 15 15 15 14 14 15 14 15 15 14 13 12 12 12 12 11 11 10 10 9 8 8 7 7 6 6 5 5 5 6 5 5 4 4 4 4 4 4 4 4 4 4
Height
788 795 799 802 805 809 812 815 817 819 819 817 816 816 814 813 811 808 806 803 800 797 795 791 786 781 773 769 766 763 759 758 750 730 737 739 740 740 740 740 739 740 740
783 792 796 797 802 806 809 810 812 814 815 813 810 813 816 812 809 806 805 802 799 793 788 783 777 770 765 759 754 748 745 744 739 731 725 727 727 729 729 729 729 731 731
778 785 793 795 799 802 807 807 808 810 811 810 812 802 811 809 805 803 801 798 795 790 783 775 767 762 753 746 740 734 731 729 727 724 713 720 719 721 719 718 718 720 720
775 784 790 795 797 801 804 803 804 806 806 807 806 806 805 804 801 799 798 793 788 781 774 767 758 750 741 732 725 720 716 714 714 715 710 710 713 711 711 710 711 712 712
775 782 790 794 799 802 804 802 801 802 803 804 806 803 803 802 801 798 793 788 780 772 766 757 748 737 728 718 711 704 701 700 701 702 701 702 702 703 699 703 705 705 704
776 784 788 791 795 796 797 799 801 800 798 802 801 800 801 801 799 795 791 784 776 766 756 748 738 726 714 704 696 690 689 689 688 690 691 691 690 691 693 696 698 701 700
773 778 782 787 790 792 795 796 796 798 798 800 799 799 797 797 795 792 786 780 770 760 753 744 729 717 705 693 684 678 676 676 678 680 681 682 685 682 685 687 690 691 692
771 777 782 785 786 787 791 794 795 795 798 798 797 797 795 792 790 787 781 775 766 757 751 742 726 712 699 685 670 666 665 665 666 668 670 672 676 678 679 681 682 685 688
770 775 778 781 785 785 789 791 791 793 794 794 795 794 794 791 787 784 778 769 762 754 746 738 727 713 694 675 664 661 660 657 655 655 658 660 664 669 675 678 679 681 681
766 770 774 778 780 782 785 789 790 790 791 791 792 790 790 788 786 782 775 766 761 754 744 736 727 713 696 680 667 661 656 649 644 645 647 651 658 663 669 673 676 676 677
764 769 773 777 777 780 782 784 785 786 788 788 787 786 788 787 784 779 773 765 762 753 743 737 728 715 701 688 675 666 658 649 640 642 645 649 655 660 664 668 672 674 675
765 771 777 777 779 779 781 782 782 778 781 782 781 782 784 783 783 778 770 765 763 754 745 741 732 720 707 694 683 673 663 656 644 643 648 653 657 661 663 666 670 671 673
764 767 770 776 771 768 774 773 772 777 776 779 778 780 780 780 779 775 768 765 762 754 748 742 736 725 716 703 696 686 676 670 665 656 661 660 663 664 666 668 672 675 675
758 761 764 764 762 764 767 770 771 771 774 774 775 776 779 778 776 771 768 764 761 754 748 742 739 730 723 717 708 699 693 689 685 682 679 673 668 667 670 674 676 677 678
753 758 759 761 760 762 765 766 766 766 769 768 770 773 776 775 773 772 770 765 759 756 751 744 740 733 729 724 718 713 707 701 696 693 689 688 686 683 683 684 684 686 686
751 754 754 755 758 762 763 762 763 763 765 767 769 775 775 774 774 773 772 766 760 756 752 749 748 744 740 734 730 725 719 714 710 707 704 701 698 696 695 695 695 694 695
748 750 752 754 757 760 761 760 761 764 765 766 770 774 774 774 774 774 772 768 762 758 756 755 755 751 747 742 738 734 731 727 721 717 714 712 710 707 704 703 703 702 701
749 749 751 753 756 757 755 754 757 760 762 767 771 772 774 774 772 775 774 769 765 761 762 761 760 757 752 747 744 741 737 733 729 725 724 722 719 716 714 712 711 711 710
747 748 751 752 751 750 749 750 754 759 763 765 767 770 772 773 774 776 774 771 768 766 767 766 764 761 758 753 749 746 743 740 737 734 732 729 726 724 723 721 721 718 716
746 746 746 746 746 748 748 750 754 757 760 763 765 766 767 771 774 773 774 773 770 770 770 769 768 765 761 758 753 750 748 745 742 740 738 736 733 730 729 728 726 724 723
743 744 745 745 746 746 748 749 752 756 758 760 763 766 767 767 771 773 771 773 773 773 773 772 771 768 766 762 758 753 751 750 747 744 742 740 738 735 735 733 731 729 727
742 745 746 746 746 747 747 748 752 755 758 760 764 766 768 769 772 773 771 773 775 775 775 774 773 771 768 764 761 757 755 752 750 748 747 744 742 740 738 736 734 732 730
741 743 745 747 748 748 749 752 755 757 758 762 764 767 770 772 773 773 771 774 777 777 777 776 775 774 772 769 764 760 757 755 754 753 751 749 747 744 742 739 737 735 733
743 744 746 747 748 750 751 753 756 757 759 762 765 768 771 773 774 774 774 777 779 779 779 778 777 776 774 771 767 763 761 758 756 755 752 750 747 745 743 742 740 739 738
744 746 747 748 748 750 752 754 755 755 758 761 766 769 773 773 775 776 777 778 780 780 780 780 779 778 775 772 769 765 763 760 758 756 754 752 750 749 746 744 744 742 740
744 747 748 749 750 752 752 754 755 758 761 766 769 772 775 776 778 779 779 780 781 782 782 782 781 779 777 773 770 767 763 761 759 757 755 753 751 749 747 746 744 743 741
Wind_Speed
37 33 30 27 23 17 12 8 6 6 8 6 6 8 11 12 12 15 16 17 17 18 23 33 35 40 38 36 33 33 34 31 18 42 32 29 32 33 35 36 35 30 28
36 33 30 28 21 16 12 9 7 6 5 4 5 9 13 12 13 15 17 14 19 27 35 36 36 38 36 36 36 37 36 37 33 25 35 30 30 30 34 37 37 34 37
38 34 27 24 20 15 13 9 7 6 5 7 8 4 11 13 14 16 12 22 29 36 37 34 37 36 37 38 39 38 36 34 31 31 35 29 30 30 31 33 34 32 34
38 31 28 23 17 14 11 9 8 7 4 5 5 8 8 10 12 11 20 26 32 35 37 37 38 38 40 43 40 38 35 32 30 29 32 29 30 29 30 24 21 29 32
33 31 26 19 13 11 11 10 8 6 4 4 7 7 8 12 9 16 21 28 33 35 34 36 38 38 44 45 43 39 31 29 28 26 26 26 24 26 21 20 24 26 32
32 27 21 18 18 17 14 11 7 6 3 7 6 6 10 11 10 19 23 31 35 33 36 37 39 39 38 40 41 40 34 28 26 25 22 20 21 25 26 25 21 12 7
33 30 25 23 22 18 13 9 7 4 3 7 7 8 10 11 12 19 25 30 35 35 35 38 41 40 43 36 35 33 32 32 35 29 26 25 24 23 26 26 23 20 19
34 28 26 25 24 16 12 8 4 2 6 8 8 10 12 8 11 17 24 30 35 34 32 36 42 41 44 41 32 25 25 25 28 34 37 36 32 30 26 27 27 26 23
32 29 28 26 19 13 11 8 7 6 6 6 8 11 14 8 12 16 24 30 35 31 29 36 42 44 56 42 23 13 20 25 25 28 35 37 38 36 29 25 21 13 5
33 30 26 21 17 12 10 8 6 8 6 7 11 10 12 8 11 18 22 27 32 31 28 35 36 49 55 49 29 15 17 24 23 22 26 35 33 31 33 29 20 11 4
30 24 19 19 15 11 7 8 9 8 9 11 12 13 7 8 12 16 20 24 25 25 25 30 35 44 52 55 39 34 24 21 19 6 10 13 19 24 24 26 26 21 11
23 16 13 13 10 6 6 9 12 12 16 15 12 6 7 7 12 16 18 18 20 21 26 28 32 38 44 50 50 44 39 29 30 29 26 21 12 7 6 10 8 7 7
19 16 18 16 15 12 12 19 16 12 12 15 10 6 2 4 11 15 16 16 16 18 21 25 29 36 41 41 45 45 42 37 32 29 23 23 25 21 26 26 23 21 20
24 26 28 26 20 18 21 14 8 9 15 14 10 6 2 6 13 15 15 16 16 17 20 24 26 31 37 35 37 41 39 37 33 29 27 28 32 31 30 23 22 22 25
28 31 26 21 20 20 9 9 14 14 13 8 12 9 6 9 13 13 11 14 15 18 18 25 28 29 28 32 31 35 35 35 32 30 30 29 29 30 33 33 30 26 20
32 28 24 23 21 14 12 11 11 9 8 11 10 10 10 11 13 11 9 12 19 19 25 22 21 22 23 26 28 28 34 36 31 31 32 27 25 26 25 29 29 27 21
31 26 23 25 14 14 14 13 6 11 13 14 15 11 10 11 12 13 11 14 19 22 25 22 19 20 20 21 23 25 26 29 29 31 28 27 27 26 25 24 21 21 21
19 20 24 19 14 14 15 15 16 22 22 19 15 12 9 8 11 10 11 14 19 23 20 21 19 21 22 23 24 24 25 28 31 31 30 28 29 27 23 23 27 23 22
16 17 16 17 17 15 15 15 23 25 23 20 14 12 11 8 8 7 8 13 16 18 17 19 21 23 23 23 23 23 24 24 25 28 29 30 29 27 27 27 25 28 26
18 14 12 12 14 15 15 20 24 25 21 18 13 10 8 14 6 6 7 10 13 14 15 17 18 21 23 23 24 24 24 25 24 24 26 27 27 27 27 25 26 25 25
13 11 15 18 16 17 21 23 23 27 20 16 9 7 12 15 12 7 9 10 12 12 13 15 18 20 21 22 23 23 22 21 23 21 23 25 25 25 24 24 24 24 25
10 11 12 15 19 20 20 21 22 20 19 14 12 15 17 18 16 13 12 12 12 12 12 13 17 20 22 24 23 21 20 19 20 19 21 23 23 23 22 23 23 24 23
9 9 13 12 12 12 12 14 17 20 17 12 17 21 21 20 17 15 15 15 12 12 11 12 14 16 19 21 21 21 21 17 16 15 17 18 18 20 20 20 21 21 22
12 11 12 8 9 6 7 11 12 14 13 17 22 23 23 20 18 16 14 15 13 12 11 11 12 15 17 20 20 19 18 17 13 12 14 16 17 18 19 18 18 19 19
17 15 12 10 9 9 9 6 5 12 22 26 27 25 22 20 18 17 16 15 12 10 10 9 10 13 16 19 19 19 16 13 11 9 10 12 10 14 15 14 12 13 17
10 10 9 10 11 13 7 17 24 25 27 29 28 25 21 19 16 15 16 13 11 10 8 7 8 11 14 17 19 19 17 13 10 8 7 9 11 13 12 14 12 12 15
Wind_Direction
204 199 200 193 188 193 202 222 248 265 283 297 316 322 319 312 317 321 323 322 317 312 311 309 304 296 287 284 275 270 265 255 249 272 266 266 267 265 265 269 272 266 259
199 206 191 187 186 187 197 203 224 250 264 304 318 322 320 322 335 334 326 323 318 318 319 310 298 296 288 282 274 270 266 261 251 256 266 266 268 270 263 263 265 264 264
196 192 182 179 182 192 202 205 215 235 270 302 296 354 312 329 341 333 333 326 325 322 318 304 297 296 288 283 274 269 266 261 261 255 264 263 268 268 256 257 261 262 259
185 178 177 185 188 197 208 211 214 230 255 284 317 319 328 337 330 324 326 324 326 326 325 313 300 293 286 283 275 269 264 252 248 251 253 259 264 259 242 234 239 249 253
177 176 177 180 190 205 220 220 222 231 261 285 290 322 329 332 324 327 331 335 333 325 320 316 304 290 292 288 279 274 259 243 245 238 247 253 247 247 227 225 229 239 246
174 175 176 183 200 207 214 220 231 237 250 252 302 320 323 323 317 328 338 337 338 334 326 317 314 308 309 300 293 281 264 245 235 233 240 248 240 225 233 226 221 203 240
177 179 184 192 200 206 212 220 224 259 266 268 308 311 310 314 323 333 335 339 341 343 328 328 327 324 323 310 302 284 275 260 247 238 238 243 255 230 227 227 226 226 230
178 181 190 200 202 194 207 214 226 257 269 299 298 304 299 294 326 342 346 347 349 347 334 333 333 335 336 329 304 271 260 254 249 244 238 241 243 248 244 236 231 235 242
179 186 197 200 199 190 199 212 212 239 269 298 291 296 297 284 329 345 349 352 351 344 342 348 344 345 353 355 336 264 271 273 275 255 244 242 236 236 245 240 234 217 213
187 194 196 197 199 192 202 213 224 260 276 296 289 295 290 287 324 343 351 356 348 347 346 359 356 2 4 3 3 324 282 286 272 242 244 237 229 233 232 242 253 209 183
190 192 192 203 194 191 198 214 248 257 277 278 289 306 233 304 328 342 359 0 350 355 352 341 347 9 12 7 15 21 10 30 38 212 230 210 213 221 230 236 246 237 226
182 181 200 194 175 183 237 244 259 253 257 270 281 269 232 304 333 349 2 2 354 7 11 358 2 16 16 10 16 25 33 39 53 50 57 59 86 141 194 224 200 200 170
164 174 174 181 175 203 227 237 239 256 264 267 272 202 249 359 0 5 9 4 0 19 30 25 22 31 27 15 13 24 32 32 38 44 41 41 51 65 93 101 103 98 90
173 180 182 192 200 204 225 243 264 280 283 269 183 173 141 33 16 13 14 10 10 19 27 35 26 35 39 26 21 26 29 31 39 39 42 46 58 59 67 78 73 79 80
178 182 186 204 221 215 236 282 284 291 278 226 182 167 144 58 33 15 14 22 26 27 32 39 28 30 25 19 18 20 24 26 28 32 34 42 48 52 58 69 68 64 63
180 190 211 229 218 246 304 307 298 287 202 176 169 166 115 79 52 40 35 47 49 45 41 30 18 25 30 30 20 18 23 26 22 30 37 38 38 43 46 53 57 56 50
199 216 222 218 241 285 289 267 209 170 169 166 162 153 118 99 68 48 50 60 55 52 45 36 26 24 25 31 29 25 22 26 36 32 30 30 34 40 43 48 52 48 41
231 231 218 227 273 269 258 246 198 169 164 169 175 165 153 114 87 58 54 59 58 59 59 49 39 34 31 33 35 32 33 38 40 40 34 30 31 36 37 44 52 48 49
225 229 246 250 246 246 241 204 183 180 180 180 181 201 188 153 99 65 57 58 61 65 69 56 47 42 40 41 42 43 42 41 42 43 40 35 32 36 40 49 47 50 48
245 253 248 228 190 199 190 182 180 186 189 189 204 204 198 196 169 108 76 62 76 80 75 65 54 48 43 41 40 40 41 40 42 43 42 42 40 41 44 44 44 40 37
216 197 193 183 179 179 184 180 185 182 192 203 194 189 162 146 144 140 104 68 101 99 82 68 59 52 44 38 35 35 36 36 37 40 39 38 40 43 42 42 38 37 31
168 171 172 179 184 184 183 184 181 179 168 151 142 141 143 134 128 110 101 95 109 103 87 69 60 52 39 32 29 31 33 32 32 38 35 36 41 41 36 36 36 36 37
194 201 194 191 193 189 182 182 181 176 164 148 145 139 138 129 117 101 101 115 114 104 91 77 63 50 38 33 30 30 28 29 31 32 34 38 41 35 31 32 34 34 30
159 161 166 159 150 137 155 169 172 177 172 176 154 141 133 122 109 105 107 124 117 106 94 73 57 44 34 29 28 28 28 26 28 33 34 36 38 32 31 36 38 35 31
151 156 157 155 128 109 134 145 155 140 140 142 140 134 128 120 110 104 112 126 123 109 94 69 49 32 26 22 21 22 24 24 26 33 39 41 40 27 29 31 33 37 29
139 139 144 158 154 161 148 132 132 133 131 135 134 131 130 124 116 107 113 121 110 106 100 73 34 25 19 17 18 19 19 20 26 29 26 29 25 23 28 32 33 25 22